Location: Grand Rapids
(42.9630°N, 85.6680°W)
Time: 02:07:05
(UTC-04:00)

A-11 Canister half - Pass Details

Date: 31 May 2024
Orbit: 1524 x 1684 km, 47.3° (Epoch: 21 June)

Event Time Altitude Azimuth Distance (km) Brightness Sun altitude
Rises 21:24:51 0° 251° (WSW) 4,667 12.1 -2.4°
Reaches altitude 10° 21:27:52 10° 252° (WSW) 3,690 11.6 -2.8°
Maximum altitude 21:37:12 82° 340° (NNW) 1,561 9.2 -4.2°
Drops below altitude 10° 21:46:48 10° 70° (ENE) 3,781 10.8 -5.6°
Sets 21:49:56 0° 71° (ENE) 4,788 11.3 -6.1°
